This is the latest recevied weather packets stored in our database for station/object W4BOD. If no packets are shown the sender has not sent any weather packets the latest 10 day(s).
| Time | Temp. | Humidity | Pressure | Rain* | Wind** | Luminosity | Snow |
|---|---|---|---|---|---|---|---|
| 1777922801 | 27.78° C | 45% | 1011 hPa | 0 mm | - | 822 W/m² | - |
| 1777922499 | 27.78° C | 44% | 1011 hPa | 0 mm | - | 851 W/m² | - |
| 1777922197 | 27.78° C | 45% | 1011.2 hPa | 0 mm | - | 825 W/m² | - |
| 1777921893 | 27.22° C | 46% | 1011.4 hPa | 0 mm | - | 838 W/m² | - |
| 1777921589 | 27.78° C | 47% | 1011.4 hPa | 0 mm | - | 426 W/m² | - |
| 1777921286 | 27.78° C | 47% | 1011.6 hPa | 0 mm | - | 863 W/m² | - |
| 1777920982 | 27.22° C | 48% | 1011.6 hPa | 0 mm | - | 872 W/m² | - |
| 1777920679 | 27.22° C | 49% | 1011.7 hPa | 0 mm | - | 895 W/m² | - |
| 1777920374 | 27.22° C | 49% | 1011.5 hPa | 0 mm | - | 897 W/m² | - |
| 1777920070 | 27.22° C | 46% | 1011.6 hPa | 0 mm | - | 756 W/m² | - |
| 1777919767 | 26.67° C | 46% | 1011.6 hPa | 0 mm | - | 921 W/m² | - |
| 1777919465 | 26.67° C | 51% | 1011.6 hPa | 0 mm | - | 921 W/m² | - |
| 1777919162 | 27.22° C | 47% | 1011.7 hPa | 0 mm | - | 915 W/m² | - |
| 1777918859 | 27.22° C | 47% | 1011.6 hPa | 0 mm | - | 909 W/m² | - |
| 1777918556 | 26.67° C | 50% | 1011.9 hPa | 0 mm | - | 905 W/m² | - |
| 1777918254 | 26.67° C | 49% | 1012 hPa | 0 mm | - | 913 W/m² | - |
| 1777917953 | 26.67° C | 49% | 1012 hPa | 0 mm | - | 917 W/m² | - |
| 1777917652 | 26.67° C | 48% | 1011.8 hPa | 0 mm | - | 891 W/m² | - |
| 1777917348 | 26.67° C | 49% | 1012 hPa | 0 mm | - | 910 W/m² | - |
| 1777917045 | 26.67° C | 48% | 1012.1 hPa | 0 mm | - | 844 W/m² | - |
| 1777916743 | 26.67° C | 49% | 1012.1 hPa | 0 mm | - | 931 W/m² | - |
| 1777916440 | 26.67° C | 51% | 1012 hPa | 0 mm | - | 922 W/m² | - |
| 1777916136 | 26.11° C | 49% | 1012 hPa | 0 mm | - | 830 W/m² | - |
| 1777915834 | 26.11° C | 50% | 1012 hPa | 0 mm | - | 901 W/m² | - |
| 1777915530 | 26.11° C | 53% | 1012.2 hPa | 0 mm | - | 902 W/m² | - |
* Rain latest hour (hover to see other rain measurements)
** Current wind speed in m/s (hover to see current wind gust speed)